EIN5PC LFLL-EIDW

Flight info

Callsign EIN5PC
Flight time N/A
Altitude 36000
Route BUSIL DCT AMORO DCT MOMIL DCT BAGBI DCT SIZZA DCT LAULY DCT BRY DCT CLM DCT KOPOR DCT VESAN DCT RATUK DCT SOVAT L613 SANDY DCT OKSAW DCT TEWXI DCT LANON L18 ABLIN ABLIN4L
Aircraft A320/M-SDE3FGHIRWY/LB1

Departure

Time 2026-04-28 19:31
Airport Lyon Saint-Exupéry Airport (LFLL)

Arrival

Time N/A
Airport Dublin Airport (EIDW)
Time Latitude Longitude Altitude Speed Heading
2026-04-28 18:58 45.71498 5.08400 804 ft 0 kts 355°
2026-04-28 19:19 45.71488 5.08401 804 ft 2 kts 355°
2026-04-28 19:19 45.71474 5.08402 804 ft 2 kts 357°
2026-04-28 19:20 45.71459 5.08400 805 ft 2 kts 14°
2026-04-28 19:20 45.71445 5.08394 805 ft 2 kts 26°
2026-04-28 19:20 45.71432 5.08382 805 ft 2 kts 39°
2026-04-28 19:20 45.71421 5.08367 805 ft 2 kts 53°
2026-04-28 19:21 45.71413 5.08349 804 ft 2 kts 66°
2026-04-28 19:21 45.71409 5.08330 804 ft 2 kts 78°
2026-04-28 19:21 45.71407 5.08312 804 ft 0 kts 89°
2026-04-28 19:21 45.71408 5.08303 804 ft 0 kts 91°
2026-04-28 19:23 45.71407 5.08304 804 ft 0 kts 91°
2026-04-28 19:23 45.71407 5.08327 804 ft 5 kts 89°
2026-04-28 19:24 45.71408 5.08377 805 ft 5 kts 89°
2026-04-28 19:24 45.71409 5.08423 806 ft 4 kts 88°
2026-04-28 19:24 45.71413 5.08464 807 ft 6 kts 69°
2026-04-28 19:24 45.71476 5.08518 806 ft 16 kts
2026-04-28 19:25 45.71588 5.08508 804 ft 19 kts 355°
2026-04-28 19:25 45.71715 5.08492 802 ft 20 kts 356°
2026-04-28 19:25 45.71861 5.08477 802 ft 21 kts 356°
2026-04-28 19:25 45.72014 5.08456 799 ft 22 kts 355°
2026-04-28 19:26 45.72170 5.08435 798 ft 22 kts 352°
2026-04-28 19:26 45.72317 5.08414 794 ft 24 kts 354°
2026-04-28 19:26 45.72473 5.08396 791 ft 25 kts 356°
2026-04-28 19:26 45.72642 5.08379 787 ft 26 kts 356°
2026-04-28 19:27 45.72814 5.08363 784 ft 27 kts 353°
2026-04-28 19:27 45.72996 5.08335 779 ft 27 kts 354°
2026-04-28 19:27 45.73167 5.08314 776 ft 28 kts 355°
2026-04-28 19:27 45.73345 5.08294 772 ft 28 kts 356°
2026-04-28 19:28 45.73520 5.08273 769 ft 28 kts 354°
2026-04-28 19:28 45.73701 5.08247 767 ft 28 kts 356°
2026-04-28 19:28 45.73905 5.08227 764 ft 28 kts 355°
2026-04-28 19:28 45.74099 5.08240 764 ft 27 kts 13°
2026-04-28 19:29 45.74266 5.08295 766 ft 14 kts 13°
2026-04-28 19:29 45.74323 5.08320 766 ft 13 kts 33°
2026-04-28 19:29 45.74355 5.08501 766 ft 15 kts 91°
2026-04-28 19:29 45.74320 5.08637 766 ft 15 kts 159°
2026-04-28 19:30 45.74291 5.08643 766 ft 1 kts 176°
2026-04-28 19:30 45.74101 5.08666 768 ft 63 kts 174°
2026-04-28 19:30 45.73532 5.08732 776 ft 121 kts 176°
2026-04-28 19:30 45.72609 5.08846 908 ft 157 kts 173°
2026-04-28 19:31 45.71658 5.08955 1513 ft 154 kts 174°
2026-04-28 19:31 45.70660 5.09014 1994 ft 160 kts 176°
2026-04-28 19:31 45.69664 5.09104 2414 ft 168 kts 172°
2026-04-28 19:31 45.68422 5.09286 2831 ft 184 kts 172°
2026-04-28 19:32 45.67085 5.09514 3251 ft 200 kts 165°
2026-04-28 19:32 45.65896 5.10573 3782 ft 203 kts 122°
2026-04-28 19:32 45.65502 5.12458 4450 ft 199 kts 85°
2026-04-28 19:32 45.65947 5.14310 5030 ft 203 kts 49°
2026-04-28 19:33 45.67115 5.15506 5492 ft 217 kts 21°
2026-04-28 19:33 45.68505 5.16254 6183 ft 222 kts 19°
2026-04-28 19:33 45.69954 5.17023 6729 ft 224 kts 19°
2026-04-28 19:33 45.71403 5.17815 7000 ft 225 kts 19°
2026-04-28 19:34 45.72851 5.18623 7027 ft 224 kts 20°
2026-04-28 19:34 45.74312 5.19405 7031 ft 224 kts 12°
2026-04-28 19:34 45.75837 5.19412 7033 ft 227 kts 343°
2026-04-28 19:34 45.77354 5.18356 7067 ft 259 kts 330°
2026-04-28 19:35 45.78938 5.17005 7596 ft 273 kts 329°
2026-04-28 19:35 45.80539 5.15635 8598 ft 268 kts 329°
2026-04-28 19:35 45.82117 5.14295 9414 ft 269 kts 329°
2026-04-28 19:35 45.83737 5.12930 10166 ft 272 kts 328°
2026-04-28 19:36 45.85368 5.11559 10710 ft 283 kts 328°
2026-04-28 19:36 45.87157 5.10052 11046 ft 301 kts 328°
2026-04-28 19:36 45.89039 5.08471 11440 ft 317 kts 327°
2026-04-28 19:36 45.90939 5.06881 12385 ft 313 kts 327°
2026-04-28 19:37 45.92774 5.05334 13515 ft 301 kts 326°
2026-04-28 19:37 45.93941 5.04301 14237 ft 292 kts 325°
2026-04-28 19:37 45.96167 5.02294 15600 ft 276 kts 324°
2026-04-28 19:37 45.97767 5.00845 16566 ft 263 kts 324°
2026-04-28 19:38 45.99293 4.99465 17355 ft 255 kts 323°
2026-04-28 19:38 46.00793 4.98104 17894 ft 255 kts 323°
2026-04-28 19:38 46.02285 4.96751 18384 ft 257 kts 323°
2026-04-28 19:38 46.03798 4.95380 18879 ft 257 kts 323°
2026-04-28 19:39 46.05321 4.94002 19367 ft 258 kts 323°
2026-04-28 19:39 46.06850 4.92618 19844 ft 259 kts 323°
2026-04-28 19:39 46.08402 4.91214 20315 ft 260 kts 323°
2026-04-28 19:39 46.09956 4.89807 20768 ft 261 kts 322°
2026-04-28 19:40 46.11492 4.88424 21202 ft 262 kts 322°
2026-04-28 19:40 46.13066 4.87010 21638 ft 264 kts 322°
2026-04-28 19:40 46.14657 4.85576 22069 ft 265 kts 322°
2026-04-28 19:40 46.16228 4.84156 22484 ft 266 kts 322°
2026-04-28 19:41 46.17818 4.82715 22897 ft 267 kts 322°
2026-04-28 19:41 46.19331 4.81341 23281 ft 268 kts 321°
2026-04-28 19:41 46.20904 4.79912 23672 ft 269 kts 321°
2026-04-28 19:41 46.22481 4.78476 24050 ft 270 kts 321°
2026-04-28 19:42 46.24087 4.77012 24411 ft 271 kts 321°
2026-04-28 19:42 46.25705 4.75536 24760 ft 273 kts 321°
2026-04-28 19:42 46.27341 4.74042 25104 ft 275 kts 321°
2026-04-28 19:42 46.28463 4.73018 25335 ft 276 kts 321°
2026-04-28 19:43 46.30652 4.71041 25772 ft 279 kts 322°
2026-04-28 19:43 46.32325 4.69559 26093 ft 280 kts 322°
2026-04-28 19:43 46.33995 4.68079 26407 ft 282 kts 321°
2026-04-28 19:43 46.35691 4.66574 26718 ft 284 kts 321°
2026-04-28 19:44 46.37385 4.65069 27022 ft 285 kts 321°
2026-04-28 19:44 46.39080 4.63560 27320 ft 287 kts 321°
2026-04-28 19:44 46.40801 4.62026 27615 ft 288 kts 321°
2026-04-28 19:44 46.42513 4.60499 27902 ft 290 kts 321°
2026-04-28 19:45 46.44244 4.58953 28186 ft 291 kts 321°
2026-04-28 19:45 46.45969 4.57412 28460 ft 293 kts 321°
2026-04-28 19:45 46.47715 4.55893 28722 ft 297 kts 326°
2026-04-28 19:45 46.49667 4.54797 28957 ft 309 kts 337°
2026-04-28 19:46 46.51800 4.54345 29197 ft 323 kts 349°
2026-04-28 19:46 46.54073 4.54541 29445 ft 333 kts 356°
2026-04-28 19:46 46.56352 4.54960 29697 ft 335 kts 357°
2026-04-28 19:46 46.58657 4.55409 29934 ft 337 kts 357°
2026-04-28 19:47 46.60955 4.55853 30163 ft 338 kts 357°
2026-04-28 19:47 46.63291 4.56297 30390 ft 340 kts 357°
2026-04-28 19:47 46.65664 4.56742 30618 ft 341 kts 357°
2026-04-28 19:47 46.67998 4.57178 30834 ft 343 kts 357°
2026-04-28 19:48 46.70385 4.57623 31050 ft 344 kts 356°
2026-04-28 19:48 46.72770 4.58068 31261 ft 346 kts 356°
2026-04-28 19:48 46.75144 4.58511 31467 ft 347 kts 356°
2026-04-28 19:48 46.77512 4.58806 31669 ft 342 kts 351°
2026-04-28 19:49 46.79903 4.58728 31873 ft 337 kts 345°
2026-04-28 19:49 46.82191 4.58282 32068 ft 331 kts 339°
2026-04-28 19:49 46.84437 4.57474 32262 ft 327 kts 334°
2026-04-28 19:49 46.86541 4.56362 32450 ft 323 kts 329°
2026-04-28 19:50 46.90689 4.53686 32806 ft 325 kts 327°
2026-04-28 19:50 46.92750 4.52336 32924 ft 328 kts 327°
2026-04-28 19:50 46.94853 4.50958 33033 ft 331 kts 328°
2026-04-28 19:51 46.96996 4.49555 33141 ft 334 kts 328°
2026-04-28 19:51 46.99124 4.48162 33247 ft 338 kts 328°
2026-04-28 19:51 47.01292 4.46743 33351 ft 341 kts 328°
2026-04-28 19:51 47.03488 4.45304 33453 ft 344 kts 328°
2026-04-28 19:52 47.05667 4.43877 33558 ft 347 kts 328°
2026-04-28 19:52 47.07896 4.42417 33698 ft 349 kts 328°
2026-04-28 19:52 47.10115 4.40963 33859 ft 350 kts 328°
2026-04-28 19:52 47.12331 4.39517 34021 ft 351 kts 328°
2026-04-28 19:53 47.14593 4.38044 34183 ft 352 kts 328°
2026-04-28 19:53 47.16858 4.36563 34335 ft 354 kts 328°
2026-04-28 19:53 47.19109 4.35086 34481 ft 355 kts 328°
2026-04-28 19:53 47.21343 4.33609 34644 ft 355 kts 327°
2026-04-28 19:54 47.23324 4.32293 34789 ft 356 kts 327°
2026-04-28 19:54 47.25063 4.31138 34904 ft 357 kts 327°
2026-04-28 19:54 47.27348 4.29622 34988 ft 360 kts 328°
2026-04-28 19:55 47.31981 4.26546 35011 ft 370 kts 328°
2026-04-28 19:55 47.36767 4.23370 35011 ft 380 kts 328°
2026-04-28 19:56 47.41667 4.20116 35010 ft 390 kts 328°
2026-04-28 19:56 47.46708 4.16764 35009 ft 399 kts 328°
2026-04-28 19:57 47.51873 4.13320 35010 ft 409 kts 328°
2026-04-28 19:57 47.57113 4.09824 35012 ft 411 kts 329°
2026-04-28 19:58 47.62362 4.06320 35014 ft 411 kts 329°
2026-04-28 19:58 47.67600 4.02814 35015 ft 411 kts 329°
2026-04-28 19:59 47.72860 3.99283 35015 ft 411 kts 329°
2026-04-28 19:59 47.78088 3.95766 35015 ft 411 kts 329°
2026-04-28 20:00 47.83313 3.92244 35015 ft 411 kts 329°
2026-04-28 20:00 47.88570 3.88691 35015 ft 411 kts 329°
2026-04-28 20:01 47.93793 3.85155 35015 ft 411 kts 329°
2026-04-28 20:01 47.99066 3.81576 35015 ft 411 kts 329°
2026-04-28 20:02 48.04331 3.77994 35015 ft 411 kts 329°
2026-04-28 20:02 48.09542 3.74293 35014 ft 408 kts 325°
2026-04-28 20:03 48.14376 3.69894 35015 ft 403 kts 319°
2026-04-28 20:03 48.18786 3.64713 35016 ft 399 kts 313°
2026-04-28 20:04 48.22754 3.58817 35016 ft 396 kts 308°
2026-04-28 20:04 48.26526 3.52690 35015 ft 396 kts 308°
2026-04-28 20:05 48.30269 3.46579 35015 ft 396 kts 308°
2026-04-28 20:05 48.34043 3.40412 35015 ft 396 kts 308°
2026-04-28 20:06 48.38038 3.34599 35016 ft 401 kts 314°
2026-04-28 20:06 48.42565 3.29459 35015 ft 405 kts 320°
2026-04-28 20:07 48.47514 3.25209 35015 ft 411 kts 327°
2026-04-28 20:07 48.52788 3.21706 35015 ft 414 kts 330°
2026-04-28 20:08 48.58126 3.18309 35039 ft 412 kts 330°
2026-04-28 20:08 48.63403 3.14938 35081 ft 412 kts 330°
2026-04-28 20:09 48.68709 3.11536 35104 ft 412 kts 330°
2026-04-28 20:09 48.74019 3.08123 35114 ft 412 kts 330°
2026-04-28 20:10 48.79314 3.04710 35120 ft 413 kts 329°
2026-04-28 20:10 48.84576 3.01127 35122 ft 410 kts 326°
2026-04-28 20:11 48.89565 2.96944 35124 ft 408 kts 323°
2026-04-28 20:11 48.94531 2.92589 35124 ft 410 kts 323°
2026-04-28 20:12 48.99470 2.88261 35125 ft 409 kts 322°
2026-04-28 20:12 49.04413 2.83933 35126 ft 405 kts 321°
2026-04-28 20:13 49.09323 2.79616 35132 ft 401 kts 319°
2026-04-28 20:13 49.14125 2.75398 35138 ft 398 kts 319°
2026-04-28 20:14 49.18929 2.71153 35149 ft 398 kts 318°
2026-04-28 20:14 49.23737 2.66890 35160 ft 397 kts 318°
2026-04-28 20:15 49.28555 2.62607 35169 ft 397 kts 318°
2026-04-28 20:15 49.33357 2.58331 35175 ft 397 kts 318°
2026-04-28 20:16 49.38176 2.54027 35177 ft 397 kts 318°
2026-04-28 20:16 49.42993 2.49715 35178 ft 397 kts 318°
2026-04-28 20:17 49.47821 2.45491 35178 ft 401 kts 321°
2026-04-28 20:17 49.52980 2.41834 35178 ft 410 kts 326°
2026-04-28 20:18 49.58422 2.38964 35179 ft 418 kts 331°
2026-04-28 20:18 49.64070 2.36399 35177 ft 418 kts 332°
2026-04-28 20:19 49.69623 2.33885 35179 ft 414 kts 330°
2026-04-28 20:19 49.75177 2.31332 35179 ft 414 kts 330°
2026-04-28 20:20 49.80683 2.28803 35179 ft 414 kts 330°
2026-04-28 20:20 49.86238 2.26254 35179 ft 414 kts 331°
2026-04-28 20:21 49.91838 2.23680 35179 ft 414 kts 331°
2026-04-28 20:21 49.97351 2.21142 35179 ft 414 kts 331°
2026-04-28 20:22 50.02908 2.18578 35179 ft 414 kts 331°
2026-04-28 20:22 50.08499 2.15992 35179 ft 414 kts 331°
2026-04-28 20:23 50.14012 2.13449 35168 ft 413 kts 331°
2026-04-28 20:23 50.19592 2.10871 35125 ft 414 kts 331°
2026-04-28 20:24 50.25155 2.08281 35102 ft 414 kts 331°
2026-04-28 20:24 50.30650 2.05569 35098 ft 408 kts 327°
2026-04-28 20:25 50.35798 2.02007 35104 ft 397 kts 320°
2026-04-28 20:25 50.40501 1.97554 35112 ft 387 kts 314°
2026-04-28 20:26 50.44723 1.92363 35119 ft 379 kts 309°
2026-04-28 20:26 50.48770 1.86855 35123 ft 383 kts 308°
2026-04-28 20:27 50.52814 1.81321 35124 ft 385 kts 308°
2026-04-28 20:27 50.56903 1.75721 35124 ft 385 kts 308°
2026-04-28 20:28 50.60946 1.70168 35125 ft 385 kts 308°
2026-04-28 20:28 50.65021 1.64556 35125 ft 385 kts 308°
2026-04-28 20:29 50.69073 1.58958 35125 ft 385 kts 308°
2026-04-28 20:29 50.73134 1.53329 35125 ft 385 kts 308°
2026-04-28 20:30 50.76941 1.48039 35126 ft 385 kts 308°
2026-04-28 20:30 50.80564 1.42999 35126 ft 385 kts 308°
2026-04-28 20:31 50.84633 1.37328 35130 ft 385 kts 308°
2026-04-28 20:31 50.88037 1.32567 35140 ft 384 kts 308°